Dallas/Ft Worth, TX

11:31 PM CST on November 14, 2019 (GMT -0600)
Dallas-Fort Worth International

Weather History for KDFW - September, 2019

Change the Weather History Date:

Saturday, September 14, 2019

  Actual Average Record
Temperature  
Mean Temperature 86 °F 79 °F  
Max Temperature 98 °F 89 °F 102 °F (1953)
Min Temperature 75 °F 68 °F 48 °F (1902)
Degree Days  
Heating Degree Days 0 0  
Month to date heating degree days 0 0  
Since 1 July heating degree days 0 0  
Cooling Degree Days 22 14  
Month to date cooling degree days 297 222  
Year to date cooling degree days 2499 2404  
Growing Degree Days 36 (Base 50)    
Moisture  
Dew Point 64 °F    
Average Humidity 51    
Maximum Humidity 76    
Minimum Humidity 29    
Precipitation  
Precipitation 0.00 in 0.09 in 2.39 in (1934)
Month to date precipitation 0.00 1.31  
Year to date precipitation 27.13 25.42  
Sea Level Pressure  
Sea Level Pressure 30.07 in    
Wind  
Wind Speed 4 mph ()    
Max Wind Speed 13 mph    
Max Gust Speed 16 mph    
Visibility 10.0 miles    
Events      
T = Trace of Precipitation, MM = Missing Value Source: Averaged Metar Reports

Daily Weather History Graph

Daily Weather History Graph

Search for Another Location

Airport or City:

Astronomy

Sep. 14, 2019 Rise Set
Actual Time 7:11 AM CDT 7:35 PM CDT
Civil Twilight 6:46 AM CDT 8:00 PM CDT
Nautical Twilight 6:17 AM CDT 8:29 PM CDT
Astronomical Twilight 5:47 AM CDT 8:59 PM CDT
Moon 8:17 PM CDT (9/14) 7:27 AM CDT (9/14)
Length of Visible Light 13h 14m
Length of Day
12h 24m
Full, 100% of the Moon is Illuminated
Sep 14
Full
Sep 21
Last Quarter
Sep 28
New
Oct 5
First Quarter
Oct 13
Full

Hourly Weather History & Observations

Time (CDT) Temp. Heat Index Dew Point Humidity Pressure Visibility Wind Dir Wind Speed Gust Speed Precip Events Conditions
12:53 AM 78.1 °F - 66.0 °F 66% 30.09 in 10.0 mi NE 4.6 mph - N/A   Mostly Cloudy
1:53 AM 77.0 °F - 66.9 °F 71% 30.10 in 10.0 mi ENE 5.8 mph - N/A   Mostly Cloudy
2:53 AM 77.0 °F - 66.9 °F 71% 30.09 in 10.0 mi Calm Calm - N/A   Mostly Cloudy
3:53 AM 78.1 °F - 68.0 °F 71% 30.08 in 10.0 mi Calm Calm - N/A   Mostly Cloudy
4:53 AM 77.0 °F - 68.0 °F 74% 30.08 in 10.0 mi East 3.5 mph - N/A   Scattered Clouds
5:53 AM 75.0 °F - 66.9 °F 76% 30.09 in 10.0 mi Calm Calm - N/A   Partly Cloudy
6:53 AM 75.9 °F - 66.9 °F 74% 30.10 in 10.0 mi NNE 3.5 mph - N/A   Scattered Clouds
7:53 AM 77.0 °F - 68.0 °F 74% 30.12 in 10.0 mi East 3.5 mph - N/A   Scattered Clouds
8:53 AM 81.0 °F 83.8 °F 68.0 °F 65% 30.13 in 10.0 mi Calm Calm - N/A   Scattered Clouds
9:53 AM 86.0 °F 88.8 °F 66.9 °F 53% 30.14 in 10.0 mi Variable 3.5 mph - N/A   Scattered Clouds
10:53 AM 89.1 °F 92.1 °F 66.9 °F 48% 30.13 in 10.0 mi Calm Calm - N/A   Scattered Clouds
11:53 AM 91.9 °F 93.3 °F 64.0 °F 39% 30.12 in 10.0 mi ESE 5.8 mph - N/A   Partly Cloudy
12:53 PM 93.9 °F 94.8 °F 62.1 °F 35% 30.10 in 10.0 mi East 8.1 mph - N/A   Scattered Clouds
1:53 PM 95.0 °F 95.6 °F 62.1 °F 33% 30.07 in 10.0 mi ESE 6.9 mph - N/A   Scattered Clouds
2:53 PM 95.0 °F 95.2 °F 61.0 °F 32% 30.04 in 10.0 mi East 6.9 mph - N/A   Scattered Clouds
3:53 PM 97.0 °F 96.9 °F 60.1 °F 29% 30.01 in 10.0 mi SE 8.1 mph - N/A   Scattered Clouds
4:53 PM 95.0 °F 94.8 °F 60.1 °F 31% 30.01 in 10.0 mi ESE 8.1 mph - N/A   Scattered Clouds
5:53 PM 95.0 °F 94.8 °F 60.1 °F 31% 30.00 in 10.0 mi SE 8.1 mph - N/A   Partly Cloudy
6:53 PM 93.0 °F 92.3 °F 59.0 °F 32% 30.01 in 10.0 mi East 8.1 mph - N/A   Partly Cloudy
7:53 PM 90.0 °F 90.0 °F 61.0 °F 38% 30.01 in 10.0 mi East 8.1 mph - N/A   Partly Cloudy
8:53 PM 88.0 °F 88.4 °F 62.1 °F 42% 30.03 in 10.0 mi East 8.1 mph - N/A   Partly Cloudy
9:53 PM 86.0 °F 87.3 °F 64.0 °F 48% 30.04 in 10.0 mi ESE 6.9 mph - N/A   Partly Cloudy
10:53 PM 84.9 °F 86.1 °F 64.0 °F 49% 30.04 in 10.0 mi East 6.9 mph - N/A   Partly Cloudy
11:53 PM 82.9 °F 84.4 °F 64.0 °F 53% 30.04 in 10.0 mi ESE 6.9 mph - N/A   Clear